When you browse on this site, cookies collect data to enhance your experience and personalize the content and advertising you see.
Visit our Privacy Policy to learn more. By continuing to use the site, you agree to this use of cookies and data.
  • In United Kingdom
  • List of Countries
  • For 7 days
  • Water Temperature
  • Satellite Maps
  • Weather Map
  • Weather Widgets
  • user-avatar
    Login

    Hourly Weather Baraki Barak

    Today, 13 December, Thursday

    Time Temperature Precipitation Wind Pressure Humidity
    00:00 +1°C° 0 mm 1 mps 596 mmHg 48%
    01:00 0°C° 0 mm 1 mps 596 mmHg 49%
    02:00 0°C° 0 mm 1 mps 596 mmHg 49%
    03:00 0°C° 0 mm 1 mps 596 mmHg 51%
    04:00 0°C° 0 mm 1 mps 596 mmHg 52%
    05:00 0°C° 0 mm 1 mps 596 mmHg 53%
    06:00 0°C° 0 mm 1 mps 597 mmHg 53%
    07:00 0°C° 0 mm 1 mps 597 mmHg 52%
    08:00 0°C° 0 mm 1 mps 597 mmHg 52%
    09:00 +1°C° 0 mm 1 mps 597 mmHg 45%
    10:00 +3°C° 0 mm 1 mps 598 mmHg 39%
    11:00 +4°C° 0 mm 1 mps 598 mmHg 33%
    12:00 +5°C° 0 mm 1 mps 598 mmHg 30%
    13:00 +6°C° 0 mm 1 mps 598 mmHg 28%
    14:00 +7°C° 0 mm 1 mps 598 mmHg 25%
    15:00 +6°C° 0 mm 1 mps 597 mmHg 28%
    16:00 +5°C° 0 mm 1 mps 597 mmHg 31%
    17:00 +4°C° 0 mm 1 mps 597 mmHg 34%
    18:00 +4°C° 0 mm 1 mps 597 mmHg 37%
    19:00 +3°C° 0 mm 1 mps 597 mmHg 39%
    20:00 +3°C° 0 mm 1 mps 597 mmHg 41%
    21:00 +2°C° 0 mm 1 mps 597 mmHg 42%
    22:00 +2°C° 0 mm 1 mps 597 mmHg 43%
    23:00 +2°C° 0 mm 1 mps 597 mmHg 44%

    Tomorrow, 14 December, Friday

    Time Temperature Precipitation Wind Pressure Humidity
    00:00 +1°C° 0 mm 1 mps 597 mmHg 44%
    01:00 +1°C° 0 mm 1 mps 597 mmHg 44%
    02:00 +1°C° 0 mm 1 mps 597 mmHg 44%
    03:00 +1°C° 0 mm 1 mps 597 mmHg 44%
    04:00 +1°C° 0 mm 1 mps 597 mmHg 44%
    05:00 0°C° 0 mm 1 mps 597 mmHg 44%
    06:00 +1°C° 0 mm 1 mps 597 mmHg 43%
    07:00 +1°C° 0 mm 1 mps 597 mmHg 41%
    08:00 +1°C° 0 mm 1 mps 598 mmHg 40%
    09:00 +3°C° 0 mm 1 mps 598 mmHg 34%
    10:00 +5°C° 0 mm 1 mps 599 mmHg 29%
    11:00 +7°C° 0 mm 1 mps 600 mmHg 23%
    12:00 +7°C° 0 mm 1 mps 600 mmHg 21%
    13:00 +8°C° 0 mm 1 mps 600 mmHg 20%
    14:00 +9°C° 0 mm 1 mps 599 mmHg 19%
    15:00 +7°C° 0 mm 1 mps 599 mmHg 22%
    16:00 +5°C° 0 mm 0 mps 599 mmHg 26%
    17:00 +4°C° 0 mm 0 mps 598 mmHg 30%
    18:00 +3°C° 0 mm 0 mps 598 mmHg 30%
    19:00 +3°C° 0 mm 0 mps 598 mmHg 31%
    20:00 +2°C° 0 mm 0 mps 598 mmHg 31%
    21:00 +2°C° 0 mm 0 mps 598 mmHg 31%
    22:00 +1°C° 0 mm 0 mps 598 mmHg 30%
    23:00 +1°C° 0 mm 0 mps 598 mmHg 29%

    Day after tomorrow, 15 December, Saturday

    Time Temperature Precipitation Wind Pressure Humidity
    00:00 +1°C° 0 mm 0 mps 598 mmHg 29%
    01:00 +1°C° 0 mm 0 mps 598 mmHg 28%
    02:00 +1°C° 0 mm 0 mps 597 mmHg 27%
    03:00 +1°C° 0 mm 1 mps 597 mmHg 27%
    04:00 +1°C° 0 mm 1 mps 597 mmHg 26%
    05:00 +1°C° 0 mm 1 mps 596 mmHg 26%
    06:00 +1°C° 0 mm 1 mps 597 mmHg 25%
    07:00 +1°C° 0 mm 1 mps 597 mmHg 24%
    08:00 +1°C° 0 mm 1 mps 597 mmHg 24%
    09:00 +2°C° 0 mm 0 mps 598 mmHg 20%
    10:00 +5°C° 0 mm 0 mps 599 mmHg 17%
    11:00 +7°C° 0 mm 0 mps 600 mmHg 13%
    12:00 +7°C° 0 mm 0 mps 600 mmHg 13%
    13:00 +8°C° 0 mm 0 mps 600 mmHg 13%
    14:00 +8°C° 0 mm 0 mps 600 mmHg 12%
    15:00 +7°C° 0 mm 0 mps 599 mmHg 16%
    16:00 +6°C° 0 mm 0 mps 599 mmHg 20%
    17:00 +4°C° 0 mm 0 mps 598 mmHg 23%
    18:00 +4°C° 0 mm 0 mps 598 mmHg 23%
    19:00 +4°C° 0 mm 1 mps 599 mmHg 23%
    20:00 +4°C° 0 mm 1 mps 599 mmHg 23%
    21:00 +3°C° 0 mm 1 mps 599 mmHg 23%
    22:00 +3°C° 0 mm 1 mps 599 mmHg 23%
    23:00 +3°C° 0 mm 1 mps 599 mmHg 22%

    16 December, Sunday

    Time Temperature Precipitation Wind Pressure Humidity
    00:00 +2°C° 0 mm 1 mps 598 mmHg 22%
    01:00 +2°C° 0 mm 1 mps 598 mmHg 22%
    02:00 +2°C° 0 mm 1 mps 598 mmHg 21%
    03:00 +2°C° 0 mm 1 mps 598 mmHg 21%
    04:00 +2°C° 0 mm 1 mps 598 mmHg 21%
    05:00 +2°C° 0 mm 1 mps 597 mmHg 20%
    06:00 +2°C° 0 mm 1 mps 598 mmHg 20%
    07:00 +2°C° 0 mm 1 mps 598 mmHg 20%
    08:00 +2°C° 0 mm 1 mps 598 mmHg 19%
    09:00 +4°C° 0 mm 1 mps 599 mmHg 17%
    10:00 +5°C° 0 mm 0 mps 600 mmHg 14%
    11:00 +7°C° 0 mm 0 mps 601 mmHg 12%
    12:00 +8°C° 0 mm 0 mps 601 mmHg 12%
    13:00 +10°C° 0 mm 1 mps 601 mmHg 12%
    14:00 +10°C° 0 mm 1 mps 600 mmHg 12%
    15:00 +9°C° 0 mm 1 mps 600 mmHg 15%
    16:00 +7°C° 0 mm 1 mps 599 mmHg 18%
    17:00 +6°C° 0 mm 1 mps 598 mmHg 21%
    18:00 +5°C° 0 mm 1 mps 598 mmHg 21%
    19:00 +5°C° 0 mm 1 mps 598 mmHg 21%
    20:00 +4°C° 0 mm 1 mps 598 mmHg 21%
    21:00 +3°C° 0 mm 1 mps 598 mmHg 21%
    22:00 +3°C° 0 mm 1 mps 598 mmHg 21%
    23:00 +3°C° 0 mm 1 mps 598 mmHg 21%

    17 December, Monday

    Time Temperature Precipitation Wind Pressure Humidity
    00:00 +3°C° 0 mm 1 mps 598 mmHg 21%
    01:00 +2°C° 0 mm 1 mps 597 mmHg 21%
    02:00 +2°C° 0 mm 1 mps 597 mmHg 21%
    03:00 +2°C° 0 mm 1 mps 597 mmHg 21%
    04:00 +2°C° 0 mm 1 mps 597 mmHg 20%
    05:00 +2°C° 0 mm 1 mps 597 mmHg 20%
    06:00 +2°C° 0 mm 1 mps 597 mmHg 20%
    07:00 +2°C° 0 mm 1 mps 597 mmHg 20%
    08:00 +2°C° 0 mm 1 mps 598 mmHg 20%
    09:00 +4°C° 0 mm 1 mps 599 mmHg 17%
    10:00 +6°C° 0 mm 1 mps 599 mmHg 15%
    11:00 +7°C° 0 mm 0 mps 600 mmHg 13%
    12:00 +8°C° 0 mm 0 mps 600 mmHg 12%
    13:00 +8°C° 0 mm 0 mps 600 mmHg 12%
    14:00 +9°C° 0 mm 0 mps 599 mmHg 12%
    15:00 +8°C° 0 mm 0 mps 599 mmHg 16%
    16:00 +6°C° 0 mm 0 mps 598 mmHg 19%
    17:00 +5°C° 0 mm 0 mps 597 mmHg 23%
    18:00 +4°C° 0 mm 0 mps 597 mmHg 23%
    19:00 +4°C° 0 mm 0 mps 597 mmHg 23%
    20:00 +3°C° 0 mm 0 mps 598 mmHg 23%
    21:00 +3°C° 0 mm 0 mps 598 mmHg 22%
    22:00 +2°C° 0 mm 0 mps 597 mmHg 22%
    23:00 +3°C° 0 mm 1 mps 597 mmHg 22%

    18 December, Tuesday

    Time Temperature Precipitation Wind Pressure Humidity
    00:00 +3°C° 0 mm 1 mps 597 mmHg 22%
    01:00 +3°C° 0 mm 1 mps 597 mmHg 22%
    02:00 +3°C° 0 mm 1 mps 597 mmHg 21%
    03:00 +3°C° 0 mm 1 mps 596 mmHg 22%
    04:00 +2°C° 0 mm 1 mps 596 mmHg 22%
    05:00 +2°C° 0 mm 1 mps 596 mmHg 22%
    06:00 +2°C° 0 mm 1 mps 596 mmHg 22%
    07:00 +2°C° 0 mm 1 mps 596 mmHg 22%
    08:00 +3°C° 0 mm 1 mps 597 mmHg 21%
    09:00 +5°C° 0 mm 1 mps 598 mmHg 19%
    10:00 +7°C° 0 mm 1 mps 599 mmHg 16%
    11:00 +10°C° 0 mm 1 mps 600 mmHg 13%
    12:00 +10°C° 0 mm 1 mps 600 mmHg 13%
    13:00 +11°C° 0 mm 1 mps 599 mmHg 12%
    14:00 +11°C° 0 mm 1 mps 599 mmHg 12%
    15:00 +10°C° 0 mm 1 mps 598 mmHg 15%
    16:00 +9°C° 0 mm 1 mps 597 mmHg 19%
    17:00 +7°C° 0 mm 1 mps 597 mmHg 22%
    18:00 +6°C° 0 mm 1 mps 596 mmHg 23%
    19:00 +5°C° 0 mm 1 mps 596 mmHg 23%
    20:00 +5°C° 0 mm 1 mps 596 mmHg 23%
    21:00 +4°C° 0 mm 1 mps 596 mmHg 23%
    22:00 +4°C° 0 mm 1 mps 596 mmHg 23%
    23:00 +4°C° 0 mm 1 mps 595 mmHg 23%
    Show more